VAF276 FSIA-FIMA

Flight info

Callsign VAF276
Flight time N/A
Altitude 39000
Route IMPOX1B IMPOX DCT RERUS UM313 ALRAN
Aircraft C700/M-SBDGHM1RWXY/LB2

Departure

Time 2026-05-07 12:22
Airport Seychelles International Airport (FSIA)

Arrival

Time N/A
Airport Agalega Island Airstrip (FIMA)
Time Latitude Longitude Altitude Speed Heading
2026-05-07 12:18 -4.67037 55.51179 5 ft 0 kts 227°
2026-05-07 12:19 -4.67032 55.51185 5 ft 3 kts 227°
2026-05-07 12:19 -4.67018 55.51200 4 ft 3 kts 227°
2026-05-07 12:20 -4.67004 55.51216 4 ft 3 kts 227°
2026-05-07 12:20 -4.66999 55.51227 4 ft 0 kts 311°
2026-05-07 12:20 -4.66968 55.51208 5 ft 10 kts 348°
2026-05-07 12:20 -4.66888 55.51196 6 ft 14 kts 332°
2026-05-07 12:21 -4.66814 55.51106 6 ft 18 kts 306°
2026-05-07 12:21 -4.66702 55.51060 8 ft 14 kts 29°
2026-05-07 12:21 -4.66716 55.51164 6 ft 37 kts 121°
2026-05-07 12:21 -4.67076 55.51683 3 ft 138 kts 123°
2026-05-07 12:22 -4.67787 55.52596 610 ft 181 kts 128°
2026-05-07 12:22 -4.68668 55.53665 1614 ft 216 kts 128°
2026-05-07 12:22 -4.69601 55.54888 2663 ft 225 kts 127°
2026-05-07 12:22 -4.70591 55.56197 3631 ft 245 kts 127°
2026-05-07 12:23 -4.71624 55.57570 4481 ft 251 kts 127°
2026-05-07 12:23 -4.72683 55.58972 5324 ft 255 kts 127°
2026-05-07 12:23 -4.73750 55.60381 6171 ft 258 kts 127°
2026-05-07 12:23 -4.74854 55.61833 6992 ft 263 kts 127°
2026-05-07 12:24 -4.75967 55.63300 7811 ft 266 kts 127°
2026-05-07 12:24 -4.77281 55.64615 8654 ft 272 kts 148°
2026-05-07 12:24 -4.79106 55.65118 9498 ft 278 kts 178°
2026-05-07 12:24 -4.80994 55.64650 10304 ft 285 kts 203°
2026-05-07 12:25 -4.82759 55.63705 11120 ft 290 kts 208°
2026-05-07 12:25 -4.84520 55.62677 11734 ft 294 kts 209°
2026-05-07 12:25 -4.86294 55.61619 12351 ft 298 kts 209°
2026-05-07 12:25 -4.88081 55.60552 12970 ft 301 kts 209°
2026-05-07 12:26 -4.89893 55.59472 13603 ft 304 kts 210°
2026-05-07 12:26 -4.91724 55.58377 14175 ft 308 kts 210°
2026-05-07 12:26 -4.93567 55.57274 14756 ft 310 kts 209°
2026-05-07 12:26 -4.95430 55.56167 15338 ft 312 kts 209°
2026-05-07 12:27 -4.97312 55.55051 15934 ft 315 kts 210°
2026-05-07 12:27 -4.99005 55.53642 16525 ft 321 kts 229°
2026-05-07 12:27 -5.00272 55.51787 17141 ft 322 kts 237°
2026-05-07 12:27 -5.01427 55.49844 17773 ft 325 kts 239°
2026-05-07 12:28 -5.02557 55.47898 18362 ft 331 kts 239°
2026-05-07 12:28 -5.03698 55.45910 18913 ft 333 kts 239°
2026-05-07 12:28 -5.04874 55.43854 19480 ft 344 kts 239°
2026-05-07 12:28 -5.06084 55.41746 20066 ft 352 kts 240°
2026-05-07 12:29 -5.07316 55.39611 20658 ft 358 kts 240°
2026-05-07 12:29 -5.08571 55.37437 21261 ft 363 kts 239°
2026-05-07 12:29 -5.09843 55.35239 21877 ft 365 kts 239°
2026-05-07 12:29 -5.11127 55.33028 22496 ft 368 kts 239°
2026-05-07 12:30 -5.12423 55.30805 23144 ft 372 kts 239°
2026-05-07 12:30 -5.13740 55.28554 23728 ft 375 kts 239°
2026-05-07 12:30 -5.15068 55.26289 24266 ft 377 kts 239°
2026-05-07 12:30 -5.16399 55.24021 24811 ft 379 kts 239°
2026-05-07 12:31 -5.17744 55.21730 25377 ft 382 kts 239°
2026-05-07 12:31 -5.19094 55.19435 25949 ft 384 kts 239°
2026-05-07 12:31 -5.20457 55.17124 26536 ft 385 kts 239°
2026-05-07 12:31 -5.21826 55.14806 27125 ft 386 kts 239°
2026-05-07 12:32 -5.23199 55.12492 27731 ft 387 kts 240°
2026-05-07 12:32 -5.24580 55.10169 28351 ft 387 kts 239°
2026-05-07 12:32 -5.25963 55.07847 28991 ft 387 kts 239°
2026-05-07 12:32 -5.27347 55.05529 29630 ft 386 kts 239°
2026-05-07 12:33 -5.30083 55.00956 30779 ft 383 kts 239°
2026-05-07 12:33 -5.31460 54.98669 31345 ft 381 kts 240°
2026-05-07 12:33 -5.32835 54.96399 31927 ft 379 kts 239°
2026-05-07 12:34 -5.34199 54.94145 32517 ft 376 kts 239°
2026-05-07 12:34 -5.35545 54.91920 33118 ft 372 kts 239°
2026-05-07 12:34 -5.36886 54.89716 33735 ft 367 kts 239°
2026-05-07 12:34 -5.38204 54.87546 34280 ft 362 kts 239°
2026-05-07 12:35 -5.39508 54.85400 34837 ft 357 kts 239°
2026-05-07 12:35 -5.40797 54.83286 35395 ft 352 kts 239°
2026-05-07 12:35 -5.42071 54.81205 35965 ft 347 kts 239°
2026-05-07 12:35 -5.43325 54.79156 36550 ft 341 kts 239°
2026-05-07 12:36 -5.44543 54.77172 37138 ft 335 kts 240°
2026-05-07 12:36 -5.45766 54.75186 37749 ft 327 kts 239°
2026-05-07 12:36 -5.46949 54.73272 38366 ft 318 kts 239°
2026-05-07 12:36 -5.48101 54.71412 38836 ft 312 kts 239°
2026-05-07 12:37 -5.50454 54.67617 38846 ft 331 kts 239°
2026-05-07 12:37 -5.52957 54.63579 38860 ft 350 kts 239°
2026-05-07 12:38 -5.55587 54.59322 38864 ft 367 kts 239°
2026-05-07 12:38 -5.58335 54.54869 38863 ft 382 kts 239°
2026-05-07 12:39 -5.61167 54.50285 38862 ft 396 kts 239°
2026-05-07 12:39 -5.64117 54.45513 38865 ft 407 kts 240°
2026-05-07 12:40 -5.67159 54.40627 38866 ft 418 kts 239°
2026-05-07 12:40 -5.70275 54.35618 38863 ft 427 kts 239°
2026-05-07 12:41 -5.73442 54.30514 38860 ft 435 kts 239°
2026-05-07 12:41 -5.76671 54.25315 38860 ft 441 kts 239°